"read_dt","SO2 (ppb)","flags","PMT voltage (V)","lamp voltage (V)","lamp intensity (Hz)","internal temp (C)","react chamber temp (C)","sample flow (l/min)","pres (mmHg)","SO2 bkg (ppb)","SO2 coefficient"
2016-08-11 00:00:00,2124E-3,5C000400,-0724,0825,12135,030.4,045.5,0.251,754.0,01.17,0.508
2016-08-11 00:01:00,2058E-3,5C000400,-0724,0825,12374,030.4,045.5,0.250,754.0,01.17,0.508
2016-08-11 00:02:00,2290E-3,5C000400,-0724,0824,12173,030.4,045.5,0.251,754.1,01.17,0.508
2016-08-11 00:03:00,2010E-3,5C000400,-0724,0825,12237,030.4,045.5,0.250,754.0,01.17,0.508
2016-08-11 00:04:00,2260E-3,5C000400,-0724,0824,12106,030.4,045.5,0.251,754.0,01.17,0.508
2016-08-11 00:05:00,2221E-3,5C000400,-0724,0825,12143,030.3,045.5,0.251,754.1,01.17,0.508
2016-08-11 00:06:00,2300E-3,5C000400,-0724,0825,12174,030.3,045.5,0.251,754.0,01.17,0.508
2016-08-11 00:07:00,2235E-3,5C000400,-0724,0826,12175,030.4,045.5,0.251,754.1,01.17,0.508
2016-08-11 00:08:00,2267E-3,5C000400,-0724,0826,12193,030.4,045.5,0.251,754.1,01.17,0.508
2016-08-11 00:09:00,2053E-3,5C000400,-0724,0825,12107,030.4,045.5,0.251,754.0,01.17,0.508
2016-08-11 00:10:00,2227E-3,5C000400,-0724,0826,10899,030.5,045.5,0.250,754.0,01.17,0.508
2016-08-11 00:11:00,2244E-3,5C000400,-0724,0824,12294,030.5,045.5,0.251,754.0,01.17,0.508
2016-08-11 00:12:00,2337E-3,5C000400,-0724,0825,12187,030.5,045.5,0.250,754.0,01.17,0.508
2016-08-11 00:13:00,2085E-3,5C000400,-0724,0824,12299,030.5,045.5,0.251,754.0,01.17,0.508
2016-08-11 00:14:00,2269E-3,5C000400,-0724,0825,12218,030.4,045.5,0.250,754.0,01.17,0.508
2016-08-11 00:15:00,2118E-3,5C000400,-0724,0825,12205,030.4,045.5,0.251,754.0,01.17,0.508
2016-08-11 00:16:00,2030E-3,5C000400,-0724,0824,12310,030.3,045.5,0.250,754.0,01.17,0.508
2016-08-11 00:17:00,2167E-3,5C000400,-0724,0825,12066,030.4,045.5,0.251,754.0,01.17,0.508
2016-08-11 00:18:00,1861E-3,5C000400,-0724,0825,12149,030.4,045.5,0.251,754.0,01.17,0.508
2016-08-11 00:19:00,2156E-3,5C000400,-0724,0824,12277,030.4,045.5,0.250,754.0,01.17,0.508
2016-08-11 00:20:00,2230E-3,5C000400,-0724,0824,12288,030.4,045.5,0.251,754.0,01.17,0.508
2016-08-11 00:21:00,2363E-3,5C000400,-0724,0825,12248,030.4,045.5,0.251,754.0,01.17,0.508
2016-08-11 00:22:00,2126E-3,5C000400,-0724,0826,12227,030.3,045.5,0.251,754.0,01.17,0.508
2016-08-11 00:23:00,2124E-3,5C000400,-0724,0824,12237,030.3,045.5,0.251,754.0,01.17,0.508
2016-08-11 00:24:00,2095E-3,5C000400,-0724,0824,12132,030.3,045.5,0.251,754.0,01.17,0.508
2016-08-11 00:25:00,2271E-3,5C000400,-0724,0824,12114,030.3,045.5,0.251,754.0,01.17,0.508
2016-08-11 00:26:00,2070E-3,5C000400,-0724,0825,12142,030.3,045.5,0.251,754.0,01.17,0.508
2016-08-11 00:27:00,2176E-3,5C000400,-0724,0824,12318,030.4,045.5,0.251,754.0,01.17,0.508
2016-08-11 00:28:00,2133E-3,5C000400,-0724,0825,12252,030.5,045.5,0.251,753.9,01.17,0.508
2016-08-11 00:29:00,2267E-3,5C000400,-0724,0824,12272,030.5,045.5,0.250,754.0,01.17,0.508
2016-08-11 00:30:00,2236E-3,5C000400,-0724,0825,12322,030.6,045.5,0.251,754.0,01.17,0.508
2016-08-11 00:31:00,2208E-3,5C000400,-0724,0826,12304,030.6,045.5,0.251,754.0,01.17,0.508
2016-08-11 00:32:00,2211E-3,5C000400,-0724,0825,12204,030.6,045.5,0.250,754.0,01.17,0.508
2016-08-11 00:33:00,2144E-3,5C000400,-0724,0825,12220,030.6,045.5,0.251,754.0,01.17,0.508
2016-08-11 00:34:00,2121E-3,5C000400,-0724,0825,12181,030.6,045.5,0.250,754.0,01.17,0.508
2016-08-11 00:35:00,2107E-3,5C000400,-0724,0825,12338,030.5,045.5,0.250,754.0,01.17,0.508
2016-08-11 00:36:00,2270E-3,5C000400,-0724,0825,12270,030.5,045.5,0.251,754.0,01.17,0.508
2016-08-11 00:37:00,2317E-3,5C000400,-0724,0825,12222,030.5,045.5,0.250,754.0,01.17,0.508
2016-08-11 00:38:00,2140E-3,5C000400,-0724,0824,12195,030.5,045.5,0.251,754.0,01.17,0.508
2016-08-11 00:39:00,2224E-3,5C000400,-0724,0824,12327,030.5,045.5,0.250,753.9,01.17,0.508
2016-08-11 00:40:00,2207E-3,5C000400,-0724,0825,12118,030.6,045.5,0.251,753.9,01.17,0.508
2016-08-11 00:41:00,2273E-3,5C000400,-0724,0826,12189,030.6,045.5,0.250,754.0,01.17,0.508
2016-08-11 00:42:00,2034E-3,5C000400,-0724,0825,12321,030.5,045.5,0.250,754.0,01.17,0.508
2016-08-11 00:43:00,2251E-3,5C000400,-0724,0825,12348,030.4,045.5,0.250,753.9,01.17,0.508
2016-08-11 00:44:00,2332E-3,5C000400,-0724,0825,12192,030.4,045.5,0.250,754.0,01.17,0.508
2016-08-11 00:45:00,2140E-3,5C000400,-0724,0825,12184,030.4,045.5,0.250,754.0,01.17,0.508
2016-08-11 00:46:00,2252E-3,5C000400,-0724,0824,12274,030.4,045.5,0.250,754.0,01.17,0.508
2016-08-11 00:47:00,2099E-3,5C000400,-0724,0825,12199,030.4,045.5,0.250,754.0,01.17,0.508
2016-08-11 00:48:00,2192E-3,5C000400,-0724,0824,12173,030.5,045.5,0.250,754.0,01.17,0.508
2016-08-11 00:49:00,2218E-3,5C000400,-0724,0824,12209,030.5,045.5,0.250,754.0,01.17,0.508
2016-08-11 00:50:00,2234E-3,5C000400,-0724,0825,12132,030.5,045.5,0.250,753.9,01.17,0.508
2016-08-11 00:51:00,2214E-3,5C000400,-0724,0825,12220,030.5,045.5,0.250,754.0,01.17,0.508
2016-08-11 00:52:00,2269E-3,5C000400,-0724,0824,12280,030.4,045.5,0.251,754.0,01.17,0.508
2016-08-11 00:53:00,2359E-3,5C000400,-0724,0825,12266,030.4,045.5,0.251,754.0,01.17,0.508
2016-08-11 00:54:00,2302E-3,5C000400,-0724,0824,12239,030.4,045.5,0.251,754.0,01.17,0.508
2016-08-11 00:55:00,2058E-3,5C000400,-0724,0825,12241,030.4,045.5,0.251,753.9,01.17,0.508
2016-08-11 00:56:00,2269E-3,5C000400,-0724,0825,12111,030.5,045.5,0.251,753.9,01.17,0.508
2016-08-11 00:57:00,2224E-3,5C000400,-0724,0825,12243,030.5,045.5,0.251,754.0,01.17,0.508
2016-08-11 00:58:00,2369E-3,5C000400,-0724,0824,12293,030.5,045.5,0.250,754.0,01.17,0.508
2016-08-11 00:59:00,2178E-3,5C000400,-0724,0825,12206,030.5,045.5,0.251,754.0,01.17,0.508
2016-08-11 01:00:00,2204E-3,5C000400,-0724,0825,12248,030.5,045.5,0.250,754.0,01.17,0.508
2016-08-11 01:01:00,2249E-3,5C000400,-0724,0825,12291,030.4,045.5,0.251,754.0,01.17,0.508
2016-08-11 01:02:00,2281E-3,5C000400,-0724,0825,12174,030.4,045.5,0.250,754.0,01.17,0.508
2016-08-11 01:03:00,2119E-3,5C000400,-0724,0825,12132,030.3,045.5,0.251,754.0,01.17,0.508
2016-08-11 01:04:00,2085E-3,5C000400,-0724,0825,12254,030.4,045.5,0.250,753.9,01.17,0.508
2016-08-11 01:05:00,2197E-3,5C000400,-0724,0825,12179,030.4,045.5,0.251,753.8,01.17,0.508
2016-08-11 01:06:00,2257E-3,5C000400,-0724,0825,12292,030.4,045.5,0.250,753.9,01.17,0.508
2016-08-11 01:07:00,2179E-3,5C000400,-0724,0825,12082,030.4,045.5,0.251,753.9,01.17,0.508
2016-08-11 01:08:00,2282E-3,5C000400,-0724,0825,12127,030.4,045.5,0.250,753.9,01.17,0.508
2016-08-11 01:09:00,2164E-3,5C000400,-0724,0825,12126,030.4,045.5,0.251,753.9,01.17,0.508
2016-08-11 01:10:00,2308E-3,5C000400,-0724,0825,12247,030.4,045.5,0.250,753.8,01.17,0.508
2016-08-11 01:11:00,2229E-3,5C000400,-0724,0825,12276,030.4,045.5,0.251,753.8,01.17,0.508
2016-08-11 01:12:00,2131E-3,5C000400,-0724,0826,12238,030.4,045.5,0.250,753.9,01.17,0.508
2016-08-11 01:13:00,2066E-3,5C000400,-0724,0825,12229,030.4,045.5,0.251,753.9,01.17,0.508
2016-08-11 01:14:00,2184E-3,5C000400,-0724,0825,12282,030.4,045.5,0.250,753.9,01.17,0.508
2016-08-11 01:15:00,2100E-3,5C000400,-0724,0826,12212,030.4,045.5,0.251,753.9,01.17,0.508
2016-08-11 01:16:00,2138E-3,5C000400,-0724,0826,12301,030.4,045.5,0.250,753.9,01.17,0.508
2016-08-11 01:17:00,2221E-3,5C000400,-0724,0826,12129,030.4,045.5,0.251,753.9,01.17,0.508
2016-08-11 01:18:00,2180E-3,5C000400,-0724,0825,12209,030.4,045.5,0.250,753.8,01.17,0.508
2016-08-11 01:19:00,2151E-3,5C000400,-0724,0826,12139,030.4,045.5,0.251,753.8,01.17,0.508
2016-08-11 01:20:00,2093E-3,5C000400,-0724,0826,12294,030.4,045.5,0.251,753.8,01.17,0.508
2016-08-11 01:21:00,2250E-3,5C000400,-0724,0826,12294,030.3,045.5,0.251,753.8,01.17,0.508
2016-08-11 01:22:00,2106E-3,5C000400,-0724,0826,12142,030.3,045.5,0.251,753.9,01.17,0.508
2016-08-11 01:23:00,2019E-3,5C000400,-0724,0826,12167,030.3,045.5,0.251,753.8,01.17,0.508
2016-08-11 01:24:00,2110E-3,5C000400,-0724,0825,12275,030.4,045.5,0.251,753.9,01.17,0.508
2016-08-11 01:25:00,2252E-3,5C000400,-0724,0825,12196,030.4,045.5,0.251,753.8,01.17,0.508
2016-08-11 01:26:00,2241E-3,5C000400,-0724,0826,12300,030.4,045.5,0.251,753.8,01.17,0.508
2016-08-11 01:27:00,2283E-3,5C000400,-0724,0826,12349,030.4,045.5,0.251,753.7,01.17,0.508
2016-08-11 01:28:00,2292E-3,5C000400,-0724,0826,12325,030.3,045.5,0.251,753.8,01.17,0.508
2016-08-11 01:29:00,2186E-3,5C000400,-0724,0825,12324,030.3,045.5,0.251,753.8,01.17,0.508
2016-08-11 01:30:00,2303E-3,5C000400,-0724,0827,12332,030.3,045.5,0.250,753.9,01.17,0.508
2016-08-11 01:31:00,2117E-3,5C000400,-0724,0825,12245,030.3,045.5,0.251,753.9,01.17,0.508
2016-08-11 01:32:00,2211E-3,5C000400,-0724,0826,12231,030.3,045.5,0.251,754.0,01.17,0.508
2016-08-11 01:33:00,2337E-3,5C000400,-0724,0825,11875,030.3,045.5,0.251,753.9,01.17,0.508
2016-08-11 01:34:00,2241E-3,5C000400,-0724,0825,12259,030.3,045.5,0.251,753.8,01.17,0.508
2016-08-11 01:35:00,2190E-3,5C000400,-0724,0825,12223,030.3,045.5,0.251,753.9,01.17,0.508
2016-08-11 01:36:00,2128E-3,5C000400,-0724,0825,12049,030.2,045.5,0.251,754.0,01.17,0.508
2016-08-11 01:37:00,2168E-3,5C000400,-0724,0826,12341,030.2,045.5,0.251,753.9,01.17,0.508
2016-08-11 01:38:00,2133E-3,5C000400,-0724,0825,12134,030.2,045.5,0.251,754.0,01.17,0.508
2016-08-11 01:39:00,2191E-3,5C000400,-0724,0825,12357,030.3,045.5,0.251,753.9,01.17,0.508
2016-08-11 01:40:00,2363E-3,5C000400,-0724,0825,12224,030.3,045.5,0.251,753.9,01.17,0.508
2016-08-11 01:41:00,2214E-3,5C000400,-0724,0825,12341,030.2,045.5,0.251,753.9,01.17,0.508
2016-08-11 01:42:00,2267E-3,5C000400,-0724,0825,12085,030.2,045.5,0.251,753.9,01.17,0.508
2016-08-11 01:43:00,2332E-3,5C000400,-0724,0825,12099,030.2,045.5,0.251,753.9,01.17,0.508
2016-08-11 01:44:00,2180E-3,5C000400,-0724,0826,12298,030.2,045.5,0.251,753.9,01.17,0.508
2016-08-11 01:45:00,2158E-3,5C000400,-0724,0824,12173,030.2,045.5,0.251,753.9,01.17,0.508
2016-08-11 01:46:00,2291E-3,5C000400,-0724,0825,12225,030.3,045.5,0.251,753.9,01.17,0.508
2016-08-11 01:47:00,2206E-3,5C000400,-0724,0825,12145,030.3,045.5,0.251,753.9,01.17,0.508
2016-08-11 01:48:00,2100E-3,5C000400,-0724,0825,12228,030.3,045.5,0.251,753.9,01.17,0.508
2016-08-11 01:49:00,2221E-3,5C000400,-0724,0826,12109,030.2,045.5,0.251,753.9,01.17,0.508
2016-08-11 01:50:00,2224E-3,5C000400,-0724,0825,12275,030.1,045.5,0.251,753.9,01.17,0.508
2016-08-11 01:51:00,2179E-3,5C000400,-0724,0825,12239,030.2,045.5,0.251,753.9,01.17,0.508
2016-08-11 01:52:00,2293E-3,5C000400,-0724,0825,12255,030.2,045.5,0.251,753.9,01.17,0.508
2016-08-11 01:53:00,2248E-3,5C000400,-0724,0826,12092,030.3,045.5,0.251,753.9,01.17,0.508
2016-08-11 01:54:00,2347E-3,5C000400,-0724,0824,12224,030.2,045.5,0.251,753.9,01.17,0.508
2016-08-11 01:55:00,2266E-3,5C000400,-0724,0825,12269,030.2,045.5,0.251,753.8,01.17,0.508
2016-08-11 01:56:00,2206E-3,5C000400,-0724,0826,12367,030.2,045.5,0.251,753.9,01.17,0.508
2016-08-11 01:57:00,2311E-3,5C000400,-0724,0825,12214,030.1,045.5,0.251,753.8,01.17,0.508
2016-08-11 01:58:00,2146E-3,5C000400,-0724,0825,12171,030.2,045.5,0.251,753.8,01.17,0.508
2016-08-11 01:59:00,2208E-3,5C000400,-0724,0825,12196,030.2,045.5,0.250,753.7,01.17,0.508
2016-08-11 02:00:00,2258E-3,5C000400,-0724,0825,12268,030.3,045.5,0.251,753.8,01.17,0.508
2016-08-11 02:01:00,2147E-3,5C000400,-0724,0825,12259,030.2,045.5,0.250,753.8,01.17,0.508
2016-08-11 02:02:00,2113E-3,5C000400,-0724,0825,12281,030.2,045.5,0.251,753.8,01.17,0.508
2016-08-11 02:03:00,2250E-3,5C000400,-0724,0825,12203,030.2,045.5,0.251,753.7,01.17,0.508
2016-08-11 02:04:00,2145E-3,5C000400,-0724,0826,12232,030.1,045.5,0.251,753.8,01.17,0.508
2016-08-11 02:05:00,2205E-3,5C000400,-0724,0825,12280,030.2,045.5,0.251,753.8,01.17,0.508
2016-08-11 02:06:00,2151E-3,5C000400,-0724,0825,12333,030.2,045.5,0.251,753.9,01.17,0.508
2016-08-11 02:07:00,2227E-3,5C000400,-0724,0826,12184,030.1,045.5,0.251,753.8,01.17,0.508
2016-08-11 02:08:00,2105E-3,5C000400,-0724,0825,12166,030.1,045.5,0.251,753.8,01.17,0.508
2016-08-11 02:09:00,2164E-3,5C000400,-0724,0825,12290,030.1,045.5,0.251,753.8,01.17,0.508
2016-08-11 02:10:00,2143E-3,5C000400,-0724,0826,12014,030.1,045.5,0.251,753.9,01.17,0.508
2016-08-11 02:11:00,2103E-3,5C000400,-0724,0825,12144,030.1,045.5,0.251,753.8,01.17,0.508
2016-08-11 02:12:00,2170E-3,5C000400,-0724,0825,12265,030.1,045.5,0.251,753.9,01.17,0.508
2016-08-11 02:13:00,2148E-3,5C000400,-0724,0825,12236,030.0,045.5,0.251,753.8,01.17,0.508
2016-08-11 02:14:00,2229E-3,5C000400,-0724,0825,12187,030.1,045.5,0.251,753.8,01.17,0.508
2016-08-11 02:15:00,2127E-3,5C000400,-0724,0825,12272,030.1,045.5,0.251,753.8,01.17,0.508
2016-08-11 02:16:00,2131E-3,5C000400,-0724,0825,12291,030.2,045.5,0.251,753.8,01.17,0.508
2016-08-11 02:17:00,2149E-3,5C000400,-0724,0825,12206,030.1,045.5,0.251,753.7,01.17,0.508
2016-08-11 02:18:00,2341E-3,5C000400,-0724,0825,12278,030.1,045.5,0.251,753.8,01.17,0.508
2016-08-11 02:19:00,2240E-3,5C000400,-0724,0826,12208,030.1,045.5,0.251,753.8,01.17,0.508
2016-08-11 02:20:00,2213E-3,5C000400,-0724,0825,12178,030.0,045.5,0.251,753.8,01.17,0.508
2016-08-11 02:21:00,2180E-3,5C000400,-0724,0826,12261,030.1,045.5,0.251,753.8,01.17,0.508
2016-08-11 02:22:00,2189E-3,5C000400,-0724,0825,12338,030.2,045.5,0.251,753.8,01.17,0.508
2016-08-11 02:23:00,2150E-3,5C000400,-0724,0825,12294,030.1,045.5,0.251,753.7,01.17,0.508
2016-08-11 02:24:00,2286E-3,5C000400,-0724,0825,12121,030.1,045.5,0.251,753.8,01.17,0.508
2016-08-11 02:25:00,2342E-3,5C000400,-0724,0825,12078,030.0,045.5,0.251,753.8,01.17,0.508
2016-08-11 02:26:00,2193E-3,5C000400,-0724,0825,12215,030.1,045.5,0.251,753.7,01.17,0.508
2016-08-11 02:27:00,2109E-3,5C000400,-0724,0825,12363,030.1,045.5,0.251,753.7,01.17,0.508
2016-08-11 02:28:00,2206E-3,5C000400,-0724,0825,12226,030.1,045.5,0.251,753.8,01.17,0.508
2016-08-11 02:29:00,2214E-3,5C000400,-0724,0825,12259,030.1,045.5,0.251,753.7,01.17,0.508
2016-08-11 02:30:00,2311E-3,5C000400,-0724,0824,12107,030.1,045.5,0.251,753.7,01.17,0.508
2016-08-11 02:31:00,2173E-3,5C000400,-0724,0824,12321,030.1,045.5,0.251,753.8,01.17,0.508
2016-08-11 02:32:00,2374E-3,5C000400,-0724,0825,12170,030.1,045.5,0.251,753.8,01.17,0.508
2016-08-11 02:33:00,2240E-3,5C000400,-0724,0826,12318,030.1,045.5,0.251,753.7,01.17,0.508
2016-08-11 02:34:00,2201E-3,5C000400,-0724,0824,12226,030.1,045.5,0.251,753.6,01.17,0.508
2016-08-11 02:35:00,2037E-3,5C000400,-0724,0825,12361,030.0,045.5,0.251,753.7,01.17,0.508
2016-08-11 02:36:00,2342E-3,5C000400,-0724,0824,12365,030.0,045.5,0.251,753.8,01.17,0.508
2016-08-11 02:37:00,2133E-3,5C000400,-0724,0825,12244,030.0,045.5,0.251,753.7,01.17,0.508
2016-08-11 02:38:00,2215E-3,5C000400,-0724,0825,12217,030.1,045.5,0.251,753.8,01.17,0.508
2016-08-11 02:39:00,2258E-3,5C000400,-0724,0824,12226,030.1,045.5,0.251,753.7,01.17,0.508
2016-08-11 02:40:00,2186E-3,5C000400,-0724,0826,12302,030.0,045.5,0.251,753.7,01.17,0.508
2016-08-11 02:41:00,2121E-3,5C000400,-0724,0825,12303,030.0,045.5,0.251,753.7,01.17,0.508
2016-08-11 02:42:00,2070E-3,5C000400,-0724,0826,12042,030.0,045.5,0.251,753.7,01.17,0.508
2016-08-11 02:43:00,2254E-3,5C000400,-0724,0823,12288,030.0,045.5,0.251,753.7,01.17,0.508
2016-08-11 02:44:00,2213E-3,5C000400,-0724,0824,12267,030.1,045.5,0.251,753.7,01.17,0.508
2016-08-11 02:45:00,2218E-3,5C000400,-0724,0824,12016,030.1,045.5,0.251,753.8,01.17,0.508
2016-08-11 02:46:00,2181E-3,5C000400,-0724,0826,12235,030.0,045.5,0.251,753.8,01.17,0.508
2016-08-11 02:47:00,2165E-3,5C000400,-0724,0825,12034,030.0,045.5,0.251,753.8,01.17,0.508
2016-08-11 02:48:00,2225E-3,5C000400,-0724,0823,12252,030.0,045.5,0.251,753.7,01.17,0.508
2016-08-11 02:49:00,2043E-3,5C000400,-0724,0825,12284,030.0,045.5,0.251,753.8,01.17,0.508
2016-08-11 02:50:00,2215E-3,5C000400,-0724,0825,12057,030.1,045.5,0.251,753.7,01.17,0.508
2016-08-11 02:51:00,2210E-3,5C000400,-0724,0824,12177,030.1,045.5,0.251,753.7,01.17,0.508
2016-08-11 02:52:00,2251E-3,5C000400,-0724,0824,12292,030.0,045.5,0.251,753.7,01.17,0.508
2016-08-11 02:53:00,2072E-3,5C000400,-0724,0825,12119,030.0,045.5,0.251,753.7,01.17,0.508
2016-08-11 02:54:00,2258E-3,5C000400,-0724,0825,12251,030.0,045.5,0.251,753.7,01.17,0.508
2016-08-11 02:55:00,2175E-3,5C000400,-0724,0824,12297,030.0,045.5,0.251,753.7,01.17,0.508
2016-08-11 02:56:00,2270E-3,5C000400,-0724,0824,12284,030.0,045.5,0.251,753.7,01.17,0.508
2016-08-11 02:57:00,2126E-3,5C000400,-0724,0825,12240,030.0,045.5,0.251,753.7,01.17,0.508
2016-08-11 02:58:00,2176E-3,5C000400,-0724,0824,12246,030.1,045.5,0.251,753.7,01.17,0.508
2016-08-11 02:59:00,2164E-3,5C000400,-0724,0825,12196,030.0,045.5,0.251,753.7,01.17,0.508
2016-08-11 03:00:00,2257E-3,5C000400,-0724,0825,12245,030.0,045.5,0.251,753.7,01.17,0.508
2016-08-11 03:01:00,2228E-3,5C000400,-0724,0824,12244,030.0,045.5,0.251,753.8,01.17,0.508
2016-08-11 03:02:00,2191E-3,5C000400,-0724,0825,12252,030.0,045.5,0.251,753.8,01.17,0.508
2016-08-11 03:03:00,2276E-3,5C000400,-0724,0825,12284,030.0,045.5,0.251,753.7,01.17,0.508
2016-08-11 03:04:00,2178E-3,5C000400,-0724,0825,12134,030.0,045.5,0.251,753.8,01.17,0.508
2016-08-11 03:05:00,2201E-3,5C000400,-0724,0825,12291,030.0,045.5,0.251,753.8,01.17,0.508
2016-08-11 03:06:00,2138E-3,5C000400,-0724,0824,12266,030.0,045.5,0.251,753.7,01.17,0.508
2016-08-11 03:07:00,2135E-3,5C000400,-0724,0825,12315,030.0,045.5,0.252,753.7,01.17,0.508
2016-08-11 03:08:00,2233E-3,5C000400,-0724,0825,12305,029.9,045.5,0.251,753.7,01.17,0.508
2016-08-11 03:09:00,2312E-3,5C000400,-0724,0825,12094,029.9,045.5,0.252,753.7,01.17,0.508
2016-08-11 03:10:00,2192E-3,5C000400,-0724,0825,12343,030.0,045.5,0.251,753.8,01.17,0.508
2016-08-11 03:11:00,2159E-3,5C000400,-0724,0824,12234,029.9,045.5,0.252,753.8,01.17,0.508
2016-08-11 03:12:00,2300E-3,5C000400,-0724,0825,12251,029.9,045.5,0.251,753.8,01.17,0.508
2016-08-11 03:13:00,2174E-3,5C000400,-0724,0825,12271,029.9,045.5,0.252,753.7,01.17,0.508
2016-08-11 03:14:00,2269E-3,5C000400,-0724,0825,12236,029.9,045.5,0.251,753.7,01.17,0.508
2016-08-11 03:15:00,2343E-3,5C000400,-0724,0825,12191,030.0,045.5,0.252,753.7,01.17,0.508
2016-08-11 03:16:00,2300E-3,5C000400,-0724,0825,12264,030.0,045.5,0.251,753.7,01.17,0.508
2016-08-11 03:17:00,2007E-3,5C000400,-0724,0824,12210,029.9,045.5,0.252,753.7,01.17,0.508
2016-08-11 03:18:00,2200E-3,5C000400,-0724,0824,12293,029.9,045.5,0.251,753.8,01.17,0.508
2016-08-11 03:19:00,2139E-3,5C000400,-0724,0826,12275,029.9,045.5,0.252,753.7,01.17,0.508
2016-08-11 03:20:00,2228E-3,5C000400,-0724,0825,12294,029.9,045.5,0.251,753.7,01.17,0.508
2016-08-11 03:21:00,2170E-3,5C000400,-0724,0825,12203,029.9,045.5,0.252,753.7,01.17,0.508
2016-08-11 03:22:00,2282E-3,5C000400,-0724,0825,12218,030.0,045.5,0.251,753.6,01.17,0.508
2016-08-11 03:23:00,2167E-3,5C000400,-0724,0825,12228,030.0,045.5,0.252,753.6,01.17,0.508
2016-08-11 03:24:00,2122E-3,5C000400,-0724,0825,12199,030.0,045.5,0.251,753.6,01.17,0.508
2016-08-11 03:25:00,2247E-3,5C000400,-0724,0824,12226,029.9,045.5,0.252,753.6,01.17,0.508
2016-08-11 03:26:00,2196E-3,5C000400,-0724,0824,12288,029.9,045.5,0.252,753.6,01.17,0.508
2016-08-11 03:27:00,2274E-3,5C000400,-0724,0825,12255,029.9,045.5,0.252,753.7,01.17,0.508
2016-08-11 03:28:00,2066E-3,5C000400,-0724,0825,12143,029.8,045.5,0.252,753.7,01.17,0.508
2016-08-11 03:29:00,2078E-3,5C000400,-0724,0824,12251,029.9,045.5,0.251,753.6,01.17,0.508
2016-08-11 03:30:00,1953E-3,5C000400,-0724,0825,12227,029.9,045.5,0.252,753.6,01.17,0.508
2016-08-11 03:31:00,2133E-3,5C000400,-0724,0825,12277,029.8,045.5,0.251,753.6,01.17,0.508
2016-08-11 03:32:00,2335E-3,5C000400,-0724,0824,12087,029.9,045.5,0.252,753.7,01.17,0.508
2016-08-11 03:33:00,2359E-3,5C000400,-0724,0825,12201,029.9,045.5,0.251,753.7,01.17,0.508
2016-08-11 03:34:00,2238E-3,5C000400,-0724,0825,12232,029.8,045.5,0.251,753.7,01.17,0.508
2016-08-11 03:35:00,2210E-3,5C000400,-0724,0825,12185,029.8,045.5,0.252,753.7,01.17,0.508
2016-08-11 03:36:00,2290E-3,5C000400,-0724,0825,12229,029.8,045.5,0.251,753.5,01.17,0.508
2016-08-11 03:37:00,2119E-3,5C000400,-0724,0825,12264,029.8,045.5,0.252,753.5,01.17,0.508
2016-08-11 03:38:00,2224E-3,5C000400,-0724,0824,12382,029.9,045.5,0.251,753.6,01.17,0.508
2016-08-11 03:39:00,2279E-3,5C000400,-0724,0824,12068,029.8,045.5,0.252,753.5,01.17,0.508
2016-08-11 03:40:00,2201E-3,5C000400,-0724,0824,12274,029.9,045.5,0.251,753.5,01.17,0.508
2016-08-11 03:41:00,2210E-3,5C000400,-0724,0825,12329,029.9,045.5,0.252,753.5,01.17,0.508
2016-08-11 03:42:00,2296E-3,5C000400,-0724,0825,12378,029.9,045.5,0.251,753.5,01.17,0.508
2016-08-11 03:43:00,2048E-3,5C000400,-0724,0825,12159,029.9,045.5,0.252,753.6,01.17,0.508
2016-08-11 03:44:00,2123E-3,5C000400,-0724,0824,12194,029.8,045.5,0.251,753.6,01.17,0.508
2016-08-11 03:45:00,2111E-3,5C000400,-0724,0825,12205,029.8,045.5,0.252,753.5,01.17,0.508
2016-08-11 03:46:00,2171E-3,5C000400,-0724,0824,12295,029.8,045.5,0.251,753.5,01.17,0.508
2016-08-11 03:47:00,2008E-3,5C000400,-0724,0824,12201,029.8,045.5,0.252,753.5,01.17,0.508
2016-08-11 03:48:00,2322E-3,5C000400,-0724,0824,12306,029.8,045.5,0.251,753.5,01.17,0.508
2016-08-11 03:49:00,2181E-3,5C000400,-0724,0824,12359,029.7,045.5,0.252,753.5,01.17,0.508
2016-08-11 03:50:00,2249E-3,5C000400,-0724,0825,12192,029.7,045.5,0.251,753.5,01.17,0.508
2016-08-11 03:51:00,2178E-3,5C000400,-0724,0824,12271,029.8,045.5,0.252,753.4,01.17,0.508
2016-08-11 03:52:00,2227E-3,5C000400,-0724,0824,12402,029.7,045.5,0.252,753.5,01.17,0.508
2016-08-11 03:53:00,2229E-3,5C000400,-0724,0824,12216,029.7,045.5,0.252,753.4,01.17,0.508
2016-08-11 03:54:00,2144E-3,5C000400,-0724,0825,12396,029.7,045.5,0.252,753.5,01.17,0.508
2016-08-11 03:55:00,2218E-3,5C000400,-0724,0825,12218,029.7,045.5,0.252,753.4,01.17,0.508
2016-08-11 03:56:00,2120E-3,5C000400,-0724,0824,12219,029.7,045.5,0.252,753.5,01.17,0.508
2016-08-11 03:57:00,2193E-3,5C000400,-0724,0824,12267,029.7,045.5,0.252,753.5,01.17,0.508
2016-08-11 03:58:00,2375E-3,5C000400,-0724,0824,12087,029.7,045.5,0.252,753.5,01.17,0.508
2016-08-11 03:59:00,2280E-3,5C000400,-0724,0825,12149,029.6,045.5,0.252,753.5,01.17,0.508
2016-08-11 04:00:00,2266E-3,5C000400,-0724,0824,12332,029.6,045.5,0.252,753.5,01.17,0.508
2016-08-11 04:01:00,2267E-3,5C000400,-0724,0825,12335,029.6,045.5,0.252,753.5,01.17,0.508
2016-08-11 04:02:00,2393E-3,5C000400,-0724,0824,12282,029.6,045.5,0.252,753.5,01.17,0.508
2016-08-11 04:03:00,2216E-3,5C000400,-0724,0824,12293,029.6,045.5,0.251,753.5,01.17,0.508
2016-08-11 04:04:00,2203E-3,5C000400,-0724,0824,12196,029.6,045.5,0.252,753.5,01.17,0.508
2016-08-11 04:05:00,2164E-3,5C000400,-0724,0824,12160,029.6,045.5,0.252,753.5,01.17,0.508
2016-08-11 04:06:00,2357E-3,5C000400,-0724,0824,12143,029.7,045.5,0.252,753.5,01.17,0.508
2016-08-11 04:07:00,2077E-3,5C000400,-0724,0825,12129,029.7,045.5,0.251,753.5,01.17,0.508
2016-08-11 04:08:00,2135E-3,5C000400,-0724,0825,12202,029.7,045.5,0.252,753.5,01.17,0.508
2016-08-11 04:09:00,2186E-3,5C000400,-0724,0824,12126,029.7,045.5,0.252,753.5,01.17,0.508
2016-08-11 04:10:00,2393E-3,5C000400,-0724,0825,12266,029.7,045.5,0.252,753.5,01.17,0.508
2016-08-11 04:11:00,2249E-3,5C000400,-0724,0824,12020,029.6,045.5,0.251,753.5,01.17,0.508
2016-08-11 04:12:00,2166E-3,5C000400,-0724,0825,12199,029.6,045.5,0.252,753.5,01.17,0.508
2016-08-11 04:13:00,2220E-3,5C000400,-0724,0825,12276,029.6,045.5,0.251,753.5,01.17,0.508
2016-08-11 04:14:00,2170E-3,5C000400,-0724,0825,12149,029.6,045.5,0.252,753.5,01.17,0.508
2016-08-11 04:15:00,2352E-3,5C000400,-0724,0825,12184,029.6,045.5,0.252,753.5,01.17,0.508
2016-08-11 04:16:00,2161E-3,5C000400,-0724,0824,12245,029.6,045.5,0.252,753.6,01.17,0.508
2016-08-11 04:17:00,2287E-3,5C000400,-0724,0824,12037,029.6,045.5,0.252,753.6,01.17,0.508
2016-08-11 04:18:00,2222E-3,5C000400,-0724,0824,12228,029.6,045.5,0.252,753.5,01.17,0.508
2016-08-11 04:19:00,2366E-3,5C000400,-0724,0825,12311,029.5,045.5,0.252,753.5,01.17,0.508
2016-08-11 04:20:00,2195E-3,5C000400,-0724,0825,12363,029.6,045.5,0.252,753.5,01.17,0.508